Regional Weather Roundup
Issued by NWS Grand Forks, ND

Home | Current Version | Previous Version | Graphics & Text | Print | Product List | Glossary On
Versions: 1 2 3 4 5 6 7 8 9 10 11 12 13 14 15 16 17 18 19 20 21 22 23 24 25 26 27 28 29 30 31 32 33 34 35 36 37 38 39 40 41 42 43 44 45 46 47 48 49 50
000
ASUS43 KFGF 270431
RWRFGF
PRAIRIE TO PINES  WEATHER ROUNDUP
NATIONAL WEATHER SERVICE EASTERN NORTH DAKOTA/GRAND FORKS ND
1000 PM CST FRI DEC 26 2014

 **SATELLITE DATA USED TO AUGMENT SKY COVER AT AUTOMATED STATIONS**
 *****  WEATHER ACROSS EASTERN NORTH DAKOTA  *****

CITY           SKY/WX    TMP DP  RH WIND       PRES   REMARKS
GRAND FORKS    CLOUDY     7   3  84 N9        30.23F WCI  -7
GRAND FRKS AFB CLOUDY     2   1  94 NW6       30.24F WCI  -9
GRAND FRKS NWS   N/A      7 N/A N/A NW3         N/A
DEVILS LAKE    PTCLDY     0  -8  71 CALM      30.16F
FARGO          MOCLDY    10   4  76 NW9       30.23F WCI  -3
WAHPETON ARPT  CLOUDY    14  10  85 N14       30.20S WCI  -1
$$

 ***** WEATHER ACROSS CENTRAL AND WESTERN NORTH DAKOTA  *****

CITY           SKY/WX    TMP DP  RH WIND       PRES   REMARKS
BISMARCK       PTCLDY     1  -2  87 CALM      30.18F
MINOT          CLOUDY    10   4  76 SE5       30.13F WCI   2
JAMESTOWN      PTCLDY     3   0  87 CALM      30.18S
MINOT AFB      CLOUDY     9   6  88 SE7       30.13F WCI  -2
GARRISON         N/A     10   7  87 CALM      30.13F
WILLISTON      CLOUDY    21  15  78 CALM      30.10F
DICKINSON      CLEAR     10   5  80 S6        30.08F WCI   0
HETTINGER      CLEAR      6   3  87 CALM      30.13S
$$

 *****  OTHER AIRPORT OBSERVATIONS IN OUR AREA  *****

CITY           SKY/WX    TMP DP  RH WIND       PRES   REMARKS
WALHALLA         N/A     -4  -6  92 CALM      30.23F
GRAFTON AIRPOR NOT AVBL
VALLEY CITY AR FAIR       3   3 100 NW7       30.19S WCI  -9
CANDO          FAIR      -2  -4  92 W3        30.17F
CAVALIER APRT  CLOUDY     3   0  85 CALM      30.24S
GWINNER        CLEAR      9   5  85 N9        30.20F WCI  -5
ROLLA          FAIR      -8 -11  84 S5        30.13S WCI -19
 ***** THE ABOVE OBSERVATIONS ARE NON NWS ARE NOT QUALITY
       CONTROLLED AND MAY MIS-REPORT RAIN FOR SNOW...
$$

  *****  WEATHER ACROSS NORTHERN MINNESOTA  *****

CITY           SKY/WX    TMP DP  RH WIND       PRES   REMARKS
FLAG ISLAND    CLOUDY    10   7  85 N6        30.17S WCI   1
WARROAD        FLURRIES  12   7  79 CALM      30.18S
ROSEAU         CLOUDY    14   7  73 NW3       30.18F
HALLOCK        CLOUDY     9   5  85 NW5       30.22S WCI   0
THF RVR FALLS  CLOUDY    10   7  85 NW8       30.19S WCI  -1
BAUDETTE       CLOUDY    14   8  77 N8        30.16S WCI   3
WASKISH        CLOUDY    18  10  73 CALM      30.15F
CROOKSTON      FLURRIES  10   7  85 NW6       30.23S WCI   1
STEPHEN NDAWN    N/A      9   7  92 N6          N/A  WCI  -1
GREENBUSH NDAW   N/A     10   7  85 W6          N/A  WCI   1
$$
  *****  WEATHER ACROSS CENTRAL AND WEST MINNESOTA  *****

CITY           SKY/WX    TMP DP  RH WIND       PRES   REMARKS
FOSSTON        LGT SNOW  12   9  85 NW3       30.17F
BEMIDJI        FLURRIES  18  13  81 NW8       30.13F WCI   8
PARK RAPIDS    CLOUDY    21  15  78 N8        30.11F WCI  11
ELBOW LAKE     CLOUDY    20  17  86 N12       30.13F WCI   8
WADENA         CLOUDY    21  16  79 N9        30.11F WCI  11
DETROIT LAKES  FLURRIES  14  14 100 NW10      30.16F WCI   1
MOORHEAD       MIX PCPN  10   9  92 N6        30.23S WCI   1
FERGUS FALLS   CLOUDY    18  12  79 N13       30.19F WCI   4
MORRIS MN      CLOUDY    21  18  86 N16       30.13S WCI   7
STAPLES        CLOUDY    21  16  79 N7        30.11F WCI  13
$$
  *****  WEATHER ELSEWHERE ACROSS MINNESOTA  *****

CITY           SKY/WX    TMP DP  RH WIND       PRES   REMARKS
DULUTH         CLOUDY    26  17  68 N8        30.06F WCI  18
INTRNTL FALLS  CLOUDY    17  10  74 NW6       30.14S WCI   9
ELY            FLURRIES  19  16  86 CALM      30.09S
CLOQUET        CLOUDY    25  18  74 NW8       30.09R WCI  16
WHEATON        FLURRIES  18  14  86 NW16G23   30.19S WCI   3
BRAINERD       CLOUDY    21  15  78 N9        30.13S WCI  11
HIBBING        CLOUDY    23  15  71 NW9       30.10F WCI  13
ALEXANDRIA     CLOUDY    23  17  78 N12       30.10F WCI  12
SAINT CLOUD    CLOUDY    29  20  69 N8        30.10S WCI  21
MINNEAPOLIS    CLOUDY    28  25  88 N10       30.07S FOG     WCI  19
$$

  *****  WEATHER ACROSS SOUTH DAKOTA  *****

CITY           SKY/WX    TMP DP  RH WIND       PRES   REMARKS
SIOUX FALLS    LGT SNOW  22  20  92 N9        30.08S FOG     WCI  12
BROOKINGS      NOT AVBL
WATERTOWN      CLOUDY    19  15  84 N12       30.11R WCI   7
HURON          CLOUDY    18  14  84 N14       30.17S WCI   4
SISSETON         N/A     16  13  88 N18       30.17S WCI   0
ABERDEEN       CLOUDY    13   8  81 N14       30.20F WCI  -2
MITCHELL       LGT SNOW  21  18  88 N16       30.15S FOG     WCI   7
PIERRE         MOCLDY    14   9  80 CALM      30.18R
MOBRIDGE       PTCLDY     3   0  87 CALM      30.16S
RAPID CITY     PTCLDY    11   8  88 CALM      30.11F
$$

  *****  SOME WEATHER IN NEARBY STATES *****

CITY           SKY/WX    TMP DP  RH WIND       PRES   REMARKS
GLASGOW MT     CLEAR     16  12  84 W5        30.12S WCI   9
GREAT FALLS MT CLEAR     15   9  76 S13       30.06F WCI   1
CHEYENNE WY    CLOUDY    11   7  84 NW3       29.99R FOG
SCOTTSBLUFF NE LGT SNOW  17  14  88 W6        30.11R FOG     WCI   9
OMAHA NE       LGT SNOW  32  31  96 N8        30.03S FOG     WCI  25
DES MOINES IA  DRIZZLE   35  32  88 CALM      29.98S FOG
DAVENPORT IA   CLOUDY    43  37  79 E5        29.97F
CHICAGO IL     MOCLDY    46  41  82 S9        30.01F
EAU CLAIRE WI  LGT SNOW  31  27  85 N6        30.01F FOG
LA CROSSE WI   CLOUDY    33  32  96 NW7       30.00F FOG
$$

  *****  SOME NATIONAL WEATHER *****

CITY           SKY/WX    TMP DP  RH WIND       PRES   REMARKS
LA GUARDIA NY  PTCLDY    45  30  55 W10       30.21F
RALEIGH NC     MOCLDY    40  33  76 CALM      30.32S
ATLANTA GA     PTCLDY    47  35  63 SE5       30.29F
NEW ORLEANS LA MOCLDY    64  56  75 E10       30.13S
OKLAHOMA CITY  MOCLDY    38  30  73 N17       30.08R
ALBUQUERQUE NM PTCLDY    27  13  55 SE3       30.05R
SALT LAKE CITY MOCLDY    24  18  77 W5        30.19R WCI  18
LOS ANGELES CA CLEAR     53  19  26 N8        30.14R
BOISE ID       CLEAR     28  22  78 W6        30.27R WCI  22
SEATTLE WA     CLOUDY    40  36  86 S5        30.34F
$$

*** WEATHER ACROSS MANITOBA...SASKATCHEWAN AND ONTARIO ***
                ***ONTARIO***

CITY           SKY/WX    TMP DP  RH WIND       PRES   REMARKS
GERALDTON      FLURRIES N/A N/A N/A W2          N/A
THUNDER BAY    CLOUDY    27  18  69 NW7       30.11S WCI  19
SIOUX LOOKOUT  FLURRIES   5   1  85 NW9       30.13S WCI  -9
TORONTO        CLEAR     36  32  87 W7        30.12S
BIG TROUT LK   CLEAR     -9 -13  84 W8        30.12R WCI -26
PICKLE LAKE    NOT AVBL
DRYDEN         FLURRIES   3   1  92 NW6       30.14S WCI  -8
KENORA         FLURRIES   5   1  85 N6        30.15S WCI  -6
$$
                *** MANITOBA***

CITY           SKY/WX    TMP DP  RH WIND       PRES   REMARKS
BRANDON        CLEAR    -13 -17  84 NW8       30.17F WCI -30
DAUPHIN        CLOUDY    -4 -11  71 SW12      30.15F WCI -22
ISLAND LAKE    CLEAR    -13 -18  77 SW5       30.14F WCI -25
PILOT MOUND      N/A    -15 -18  84 S5          N/A  WCI -27
THE PAS        PTCLDY   -11 -15  84 N5        30.09F WCI -23
THOMPSON       PTCLDY   -27 -35  68 W3        30.07F
WINNIPEG       FLURRIES   1  -4  78 CALM      30.24F
CHURCHILL      LGT SNOW -11 -17  77 W6        30.00S WCI -25
GILLAM         CRYSTALS -24 -29  76 SW6       30.06F WCI -40
$$
                ***SASKATCHEWAN***

CITY           SKY/WX    TMP DP  RH WIND       PRES   REMARKS
ESTEVAN        CLOUDY    12  10  92 SE7       30.08F WCI   2
KINDERSLEY     MOCLDY     5   1  85 S7        30.01F WCI  -7
LLOYDMINSTER   FLURRIES  10   7  85 NW3       29.99F
PRINCE ALBERT  FLURRIES   5   1  85 VRB2      30.06S
REGINA         FLURRIES  12   9  85 SW6       30.07F WCI   3
YORKTON          N/A     -2  -6  84 S9        30.06F WCI -18
N. BATTLEFORD  FLURRIES  12  10  92 W5        30.05S WCI   4
LA RONGE       CLEAR    -18 -22  83 W5        30.09S WCI -31
SASKATOON      FLURRIES  12   9  85 W5        30.06F WCI   4
SWIFT CURRENT  CLEAR      9   7  92 SW12      30.01F WCI  -6
$$
NOTE: THESE ARE AUTOMATED STATIONS WITH LIMITED QUALITY CONTROL
      "FAIR" INDICATES FEW OR NO CLOUDS BELOW 12,000 FEET WITH NO
      SIGNIFICANT WEATHER AND/OR OBSTRUCTIONS TO VISIBILITY.
      SKY/WX - SKY CONDITION AND SIGNIFICANT WEATHER.
      TMP - AIR TEMPERATURE.    DP   - DEWPOINT TEMPERATURE.
      RH  - RELATIVE HUMIDITY.  PRES - PRESSURE.
      HX  - HEAT INDEX.         WCI  - WIND CHILL INDEX.
$



USA.gov is the U.S. government's official web portal to all federal, state and local government web resources and services.